* Astronomy

Members Login
Username 
 
Password 
    Remember Me  
Post Info TOPIC: Asteroid 2011 CH71


L

Posts: 131433
Date:
Asteroid 2011 CH71
Permalink  
 


Orbital elements:
2011 CH71 Earth MOID = 0.2365 AU
Epoch 2011 Feb. 8.0 TT = JDT 2455600.5 MPC
M 341.29568 (2000.0) P Q
n 0.22366479 Peri. 73.91931 -0.72203347 +0.65488033
a 2.6878455 Node 146.02210 -0.68083578 -0.72990046
e 0.6302278 Incl. 23.53441 +0.12300535 -0.19590066
P 4.41 H 18.4 G 0.15 U 7

MPEC 2011 - D24


__________________
Page 1 of 1  sorted by
 
Quick Reply

Please log in to post quick replies.



Create your own FREE Forum
Report Abuse
Powered by ActiveBoard